Tillbaka till svenska Fidonet
English   Information   Debug  
FILM   0/18
FNEWS_PUBLISH   4926
FN_SYSOP   42201
FN_SYSOP_OLD1   71952
FTP_FIDO   0/2
FTSC_PUBLIC   0/13972
FUNNY   0/4886
GENEALOGY.EUR   0/71
GET_INFO   105
GOLDED   0/408
HAM   6143/16660
HOLYSMOKE   0/6791
HOT_SITES   0/1
HTMLEDIT   0/71
HUB203   466
HUB_100   264
HUB_400   39
HUMOR   0/29
IC   0/2851
INTERNET   0/424
INTERUSER   0/3
IP_CONNECT   719
JAMNNTPD   0/233
JAMTLAND   0/47
KATTY_KORNER   0/41
LAN   0/16
LINUX-USER   0/19
LINUXHELP   0/1155
LINUX   0/22300
LINUX_BBS   0/957
mail   18.68
mail_fore_ok   249
MENSA   0/341
MODERATOR   0/102
MONTE   0/992
MOSCOW_OKLAHOMA   0/1245
MUFFIN   0/783
MUSIC   0/321
N203_STAT   938
N203_SYSCHAT   313
NET203   321
NET204   69
NET_DEV   0/10
NORD.ADMIN   0/101
NORD.CHAT   0/2572
NORD.FIDONET   189
NORD.HARDWARE   0/28
NORD.KULTUR   0/114
NORD.PROG   0/32
NORD.SOFTWARE   0/88
NORD.TEKNIK   0/58
NORD   0/453
OCCULT_CHAT   0/93
OS2BBS   0/787
OS2DOSBBS   0/580
OS2HW   0/42
OS2INET   0/37
OS2LAN   0/134
OS2PROG   0/36
OS2REXX   0/113
OS2USER-L   207
OS2   0/4830
OSDEBATE   8579/18996
PASCAL   0/490
PERL   0/457
PHP   0/45
POINTS   0/405
POLITICS   0/29554
POL_INC   0/14731
PSION   103
R20_ADMIN   1133
R20_AMATORRADIO   0/2
R20_BEST_OF_FIDONET   16
R20_CHAT   0/896
R20_DEPP   0/3
R20_DEV   400
R20_ECHO2   1830
R20_ECHOPRES   0/35
R20_ESTAT   0/719
R20_FIDONETPROG...
...RAM.MYPOINT
  0/2
R20_FIDONETPROGRAM   0/22
R20_FIDONET   0/248
R20_FILEFIND   0/24
R20_FILEFOUND   0/22
R20_HIFI   0/3
R20_INFO2   3723
R20_INTERNET   0/12940
R20_INTRESSE   0/60
R20_INTR_KOM   0/99
R20_KANDIDAT.CHAT   42
R20_KANDIDAT   28
R20_KOM_DEV   112
R20_KONTROLL   0/13360
R20_KORSET   0/18
R20_LOKALTRAFIK   0/24
R20_MODERATOR   0/1852
R20_NC   76
R20_NET200   245
R20_NETWORK.OTH...
...ERNETS
  0/13
R20_OPERATIVSYS...
...TEM.LINUX
  0/44
R20_PROGRAMVAROR   0/1
R20_REC2NEC   534
R20_SFOSM   0/341
R20_SF   0/108
R20_SPRAK.ENGLISH   0/1
R20_SQUISH   107
R20_TEST   2
R20_WORST_OF_FIDONET   20
RAR   0/9
RA_MULTI   106
RA_UTIL   0/162
REGCON.EUR   0/2068
REGCON   0/13
SCIENCE   0/1206
SF   0/239
SHAREWARE_SUPPORT   0/5146
SHAREWRE   0/14
SIMPSONS   0/169
STATS_OLD1   0/2539.065
STATS_OLD2   0/2530
STATS_OLD3   0/2395.095
STATS_OLD4   0/1692.25
SURVIVOR   0/495
SYSOPS_CORNER   0/3
SYSOP   0/84
TAGLINES   0/112
TEAMOS2   0/4530
TECH   0/2617
TEST.444   0/105
TRAPDOOR   0/19
TREK   0/755
TUB   0/290
UFO   0/40
UNIX   0/1316
USA_EURLINK   0/102
USR_MODEMS   0/1
VATICAN   0/2740
VIETNAM_VETS   0/14
VIRUS   0/378
VIRUS_INFO   0/201
VISUAL_BASIC   0/473
WHITEHOUSE   0/5187
WIN2000   0/101
WIN32   0/30
WIN95   0/4291
WIN95_OLD1   0/70272
WINDOWS   0/1517
WWB_SYSOP   0/419
WWB_TECH   0/810
ZCC-PUBLIC   0/1
ZEC   4

 
4DOS   0/134
ABORTION   0/7
ALASKA_CHAT   0/506
ALLFIX_FILE   0/1313
ALLFIX_FILE_OLD1   0/7997
ALT_DOS   0/152
AMATEUR_RADIO   0/1039
AMIGASALE   0/14
AMIGA   0/331
AMIGA_INT   0/1
AMIGA_PROG   0/20
AMIGA_SYSOP   0/26
ANIME   0/15
ARGUS   0/924
ASCII_ART   0/340
ASIAN_LINK   0/651
ASTRONOMY   0/417
AUDIO   0/92
AUTOMOBILE_RACING   0/105
BABYLON5   0/17862
BAG   135
BATPOWER   0/361
BBBS.ENGLISH   0/382
BBSLAW   0/109
BBS_ADS   0/5290
BBS_INTERNET   0/507
BIBLE   0/3563
BINKD   0/1119
BINKLEY   0/215
BLUEWAVE   0/2173
CABLE_MODEMS   0/25
CBM   0/46
CDRECORD   0/66
CDROM   0/20
CLASSIC_COMPUTER   0/378
COMICS   0/15
CONSPRCY   0/899
COOKING   41444
COOKING_OLD1   0/24719
COOKING_OLD2   0/40862
COOKING_OLD3   0/37489
COOKING_OLD4   0/35496
COOKING_OLD5   9370
C_ECHO   0/189
C_PLUSPLUS   0/31
DIRTY_DOZEN   0/201
DOORGAMES   0/2285
DOS_INTERNET   0/196
duplikat   6102
ECHOLIST   0/18295
EC_SUPPORT   0/318
ELECTRONICS   0/359
ELEKTRONIK.GER   1534
ENET.LINGUISTIC   0/13
ENET.POLITICS   0/4
ENET.SOFT   0/11701
ENET.SYSOP   34296
ENET.TALKS   0/32
ENGLISH_TUTOR   0/2000
EVOLUTION   0/1335
FDECHO   0/217
FDN_ANNOUNCE   0/7068
FIDONEWS   25062
FIDONEWS_OLD1   0/49742
FIDONEWS_OLD2   0/35949
FIDONEWS_OLD3   0/30874
FIDONEWS_OLD4   0/37224
FIDO_SYSOP   12922
FIDO_UTIL   0/180
FILEFIND   0/209
FILEGATE   0/212
Möte HAM, 16660 texter
 lista första sista föregående nästa
Text 4927, 937 rader
Skriven 2011-12-01 23:00:52 av Amsat List (1:323/120.0)
Ärende: [keps] orb11335.amsa
============================
[keps] orb11335.amsa

Sender: keps-bounces@amsat.org
Return-Path: <keps-bounces@amsat.org>
X-Rcpt: craig.healy@chowda.com
X-UIDL: 1322798210.1360

SB KEPS @ AMSAT  $ORB11335.O
Orbital Elements  11335.OSCAR

HR AMSAT ORBITAL ELEMENTS FOR OSCAR SATELLITES
FROM WA5QGD FORT WORTH,TX December 1, 2011
Send Subscribe/unsubscribe to KEPS at http://www.amsat.org/mailman/listinfo/kep
BID: ORB11335.O
TO ALL RADIO AMATEURS BT

Satellite: AO-07
Catalog number: 07530
Epoch time:      11335.58887659
Element set:     243
Inclination:      101.3961 deg
RA of node:       335.5426 deg
Eccentricity:    0.0011873
Arg of perigee:   312.0858 deg
Mean anomaly:     047.9200 deg
Mean motion:   12.53585996 rev/day
Decay rate:       -2.7e-07 rev/day^2
Epoch rev:           69516
Checksum:              319

Satellite: FO-29
Catalog number: 24278
Epoch time:      11334.96307594
Element set:    0739
Inclination:      098.5707 deg
RA of node:       096.8317 deg
Eccentricity:    0.0350522
Arg of perigee:   185.0587 deg
Mean anomaly:     174.6973 deg
Mean motion:   13.52972401 rev/day
Decay rate:        5.5e-07 rev/day^2
Epoch rev:           75501
Checksum:              339

Satellite: SO-33
Catalog number: 25509
Epoch time:      11334.49401466
Element set:    0112
Inclination:      031.4367 deg
RA of node:       023.6279 deg
Eccentricity:    0.0353542
Arg of perigee:   256.1439 deg
Mean anomaly:     099.9604 deg
Mean motion:   14.28571898 rev/day
Decay rate:      1.379e-05 rev/day^2
Epoch rev:           68407
Checksum:              326

Satellite: RS-22
Catalog number: 27939
Epoch time:      11335.71235527
Element set:     861
Inclination:      097.8252 deg
RA of node:       181.5355 deg
Eccentricity:    0.0013548
Arg of perigee:   170.0417 deg
Mean anomaly:     190.1054 deg
Mean motion:   14.63792916 rev/day
Decay rate:      1.120e-05 rev/day^2
Epoch rev:           43684
Checksum:              302

Satellite: VO-52
Catalog number: 28650
Epoch time:      11334.36830378
Element set:    0963
Inclination:      097.6228 deg
RA of node:       009.9043 deg
Eccentricity:    0.0026399
Arg of perigee:   339.8242 deg
Mean anomaly:     020.1916 deg
Mean motion:   14.82462102 rev/day
Decay rate:      1.929e-05 rev/day^2
Epoch rev:           35536
Checksum:              316

Satellite: SO-67
Catalog number: 35870
Epoch time:      11335.89171698
Element set:     456
Inclination:      097.2602 deg
RA of node:       013.5507 deg
Eccentricity:    0.0003051
Arg of perigee:   122.6672 deg
Mean anomaly:     339.5098 deg
Mean motion:   15.22074073 rev/day
Decay rate:      6.755e-05 rev/day^2
Epoch rev:           12243
Checksum:              307

Satellite: HO-68
Catalog number: 36122
Epoch time:      11335.68382941
Element set:     974
Inclination:      100.3940 deg
RA of node:       033.7933 deg
Eccentricity:    0.0007578
Arg of perigee:   199.6954 deg
Mean anomaly:     160.3877 deg
Mean motion:   13.16290732 rev/day
Decay rate:       -4.4e-07 rev/day^2
Epoch rev:            9427
Checksum:              325

/EX
SB KEPS @ AMSAT  $ORB11335.D
Orbital Elements  11335.MICROS

HR AMSAT ORBITAL ELEMENTS FOR THE MICROSATS
FROM WA5QGD FORT WORTH,TX December 1, 2011
Send Subscribe/unsubscribe to KEPS at http://www.amsat.org/mailman/listinfo/kep
BID: ORB11335.D
TO ALL RADIO AMATEURS BT

Satellite: UO-11
Catalog number: 14781
Epoch time:      11335.73485930
Element set:     721
Inclination:      097.9835 deg
RA of node:       031.7225 deg
Eccentricity:    0.0008496
Arg of perigee:   322.8736 deg
Mean anomaly:     037.1887 deg
Mean motion:   14.80198514 rev/day
Decay rate:      1.367e-05 rev/day^2
Epoch rev:           49057
Checksum:              330

Satellite: AO-16
Catalog number: 20439
Epoch time:      11334.88427994
Element set:     338
Inclination:      098.4061 deg
RA of node:       279.1026 deg
Eccentricity:    0.0011677
Arg of perigee:   032.8697 deg
Mean anomaly:     327.3211 deg
Mean motion:   14.31984355 rev/day
Decay rate:       2.45e-06 rev/day^2
Epoch rev:           14147
Checksum:              314

Satellite: LO-19
Catalog number: 20442
Epoch time:      11335.84600481
Element set:     260
Inclination:      098.3699 deg
RA of node:       283.7548 deg
Eccentricity:    0.0012341
Arg of perigee:   023.4971 deg
Mean anomaly:     336.6769 deg
Mean motion:   14.32208112 rev/day
Decay rate:       4.22e-06 rev/day^2
Epoch rev:           14179
Checksum:              296

Satellite: AO-27
Catalog number: 22825
Epoch time:      11334.89274203
Element set:    0976
Inclination:      098.5519 deg
RA of node:       276.0592 deg
Eccentricity:    0.0008965
Arg of perigee:   141.0390 deg
Mean anomaly:     219.1438 deg
Mean motion:   14.29401861 rev/day
Decay rate:       2.27e-06 rev/day^2
Epoch rev:           94800
Checksum:              317

Satellite: IO-26
Catalog number: 22826
Epoch time:      11334.86141229
Element set:    0737
Inclination:      098.5457 deg
RA of node:       276.4539 deg
Eccentricity:    0.0009522
Arg of perigee:   135.5774 deg
Mean anomaly:     224.6173 deg
Mean motion:   14.29669885 rev/day
Decay rate:       2.50e-06 rev/day^2
Epoch rev:           94812
Checksum:              338

Satellite: GO-32
Catalog number: 25397
Epoch time:      11334.88252209
Element set:     642
Inclination:      098.3416 deg
RA of node:       318.6573 deg
Eccentricity:    0.0001952
Arg of perigee:   125.0570 deg
Mean anomaly:     235.0798 deg
Mean motion:   14.23240585 rev/day
Decay rate:        3.6e-07 rev/day^2
Epoch rev:           69567
Checksum:              313

